SJ 16-02 DEB, 43428

Orbit data source: Space-Track

SJ 16-02 DEB, 43428 is space debris in LEO originally from a launch on Wed, 29 Jun 2016 UTC launched from the Jiuquan Satellite Launch Center, China (JSC). Debris objects in space refer to the collection of defunct objects orbiting the Earth. Examples of debris include non-operational satellites, rocket bodies, and fragments generated from explosions, collisions, or faulty payload assembly.

Loading next visibility...
Identifier
43428, 2016-043C
Orbit
LEO
Country
Flag of CNCN / PRC
Related business
Manufacturer
SAST
Mission
Spacecraft
Bus & Motor
Unknown
Mass
Unknown
Launch date (UTC)
2016-06-29 (10 years ago)
Launch vehicle
Unknown
Launch site
Jiuquan Satellite Launch Center, China (JSC)
Object type
Payload
Rocket body
Debris
Shape & HBR
Unknown shape, 0.1 m
Radar Cross Section
Small (<0.1 m²)

Expand to show TLE details & history
Last TLE update: 2 days ago

TLE from 2 days ago
0 SJ 16-02 DEB
1 43428U 16043C   26170.95761399  .00002236  00000-0  50737-3 0  9998
2 43428  74.9614 140.6055 0238871  83.5876 279.2424 14.40333888519402
Epoch: 2026-06-19T22:58Z
TLE epoch observation values (Epoch: 2026-06-19T22:58:57.848Z)
Latitude
-0.00006°
Longitude
-112.31468°
Altitude
736.673 km
Speed
7.499 km/s
True Right ascension
09h 22m 25s
True Declination
0° 00' 00"
Sunlit
Object was in daylight at epoch
Visualization orbit readout
Latitude
Unknown
Longitude
Unknown
Altitude
Unknown
Speed
Unknown
Apparent Right ascension
Unknown
Apparent Declination
Unknown
Sunlit
N/A
Visualization observer readout
Local Sidereal Time
21:30:45
Azimuth
Unknown
Elevation
Unknown
Doppler factor
Unknown
Orbital elements
Apogee altitude
925.324 km
Perigee altitude
584.547 km
Semi-major axis
7,133.073 km
Eccentricity
0.02389
Inclination
74.9614°
RAAN
140.6055°
Arg. of periapsis
83.5876°
True anomaly
276.52867°
Mean anomaly
279.2424°
Eccentric anomaly
277.88672°
Mean motion
3.6027 °/min
Orbital period
99.93 mins
BSTAR
0.00050737
Loading maneuver chart data...
Computing Atmospheric mass density...
Loading historical data...
Loading historical data...
Loading historical data...
Loading historical data...
Loading historical data...
Loading historical data...
Loading historical data...
Other satellites on launch #43 in the year 2016 (2016-06-29 UTC)

Documentation

Showing up to 5 results
|